Location: Central Falls
(41.8900°N, 71.3929°W)
Time: 03:27:23
(UTC+00:00)

Vanguard 2 - Pass Details

Date: 12 December 2023
Orbit: 554 x 2918 km, 32.9° (Epoch: 01 March)

Event Time Altitude Azimuth Distance (km) Brightness Sun altitude
Rises 01:10:01 0° 251° (WSW) 6,491 12.9 -42.9°
Reaches altitude 10° 01:14:11 10° 248° (WSW) 5,620 12.4 -43.7°
Enters shadow 01:30:25 60° 188° (S) 3,131 10.3 -46.7°
Maximum altitude 01:31:29 61° 175° (S) 3,096 - -46.9°
Drops below altitude 10° 01:46:12 10° 100° (E) 4,874 - -49.5°
Sets 01:49:32 0° 97° (E) 5,619 - -50.1°
